Location: Burkes Observatory
(44.7598°N, 69.4315°W)
Time: 01:20:46
(UTC-04:00)

Daily predictions for brighter satellites

Satellite Brightness Start Highest point End
(mag) Time Altitude Azimuth Time Altitude Azimuth Time Altitude Azimuth
SL-16 R/B 4.2 02:04:14 28° NE 02:04:14 28° NE 02:08:46 10° N
Cosmos 2219 Rocket 3.9 02:41:03 10° N 02:46:02 30° NE 02:50:59 10° ESE
ARIANE 5 R/B 4.4 02:42:17 10° NNE 02:44:49 26° NE 02:44:49 26° NE
CZ-2D R/B 3.8 02:44:50 10° NNE 02:47:59 29° ENE 02:47:59 29° ENE
Okean O Rocket 4.4 02:58:44 10° ENE 03:00:33 12° E 03:01:05 12° E
ATLAS 2AS CENTAUR R/B 3.2 03:17:04 58° NW 03:17:04 58° NW 03:25:01 10° NNE
Resurs 1-4 Rocket 2.9 03:14:05 10° NNE 03:18:00 48° NE 03:18:00 48° NE
Lacrosse 5 rocket 3.4 03:21:46 29° NE 03:21:46 29° NE 03:24:01 10° NE
Nadezhda 3 Rocket 4.3 03:21:14 62° N 03:21:14 62° N 03:26:22 10° N
Cosmos 2333 Rocket 3.3 03:17:07 10° NNW 03:22:35 43° ENE 03:27:57 10° SE
CZ-3A R/B 3.8 03:32:05 33° N 03:33:00 37° NNE 03:38:18 10° E
Meteor 2-16 Rocket 4.4 03:27:24 10° N 03:33:28 81° ENE 03:33:28 81° ENE
Cosmos 968 Rocket 4.0 03:37:05 55° NE 03:37:05 55° NE 03:41:07 10° NNE
IRS-1D 4.2 03:33:44 10° N 03:37:40 49° N 03:37:40 49° N
NOSS 3-2 (A) 4.0 03:37:11 10° NW 03:44:37 77° NE 03:52:40 10° SE
SL-16 R/B 3.4 03:49:21 34° NW 03:49:21 34° NW 03:52:58 10° NNW
Cosmos 2237 Rocket 2.8 03:44:42 10° NNW 03:50:16 56° ENE 03:55:47 10° SE
Meteor 1-12 Rocket 4.5 03:46:03 10° NNW 03:50:56 58° NW 03:50:56 58° NW
SL-24 R/B 4.4 03:59:08 74° SE 03:59:32 82° E 04:04:25 10° N
ATLAS 5 CENTAUR R/B 2.7 03:54:22 10° NNW 04:00:18 67° NE 04:06:42 10° SE
Cosmos 1980 3.8 03:58:04 10° NNW 04:03:47 76° ENE 04:09:28 10° SSE
Cosmos 2219 3.5 04:05:17 50° NW 04:05:17 50° NW 04:10:28 10° NNE
Cosmos 1821 Rocket 4.1 03:59:00 10° NNW 04:05:02 56° W 04:05:02 56° W
Cosmos 773 Rocket 4.4 04:00:14 10° NNW 04:12:02 - SSE 04:04:09 50° NW
Gbstr 26 Del rocket 4.3 04:05:44 50° W 04:07:34 63° SW 04:15:30 10° SE
SL-16 R/B 3.6 04:03:39 10° NNW 04:08:56 37° NE 04:14:10 10° ESE
Cosmos 1934 Rocket 3.9 04:03:06 10° NNW 04:09:20 63° W 04:10:20 55° SW
Cosmos 1605 Rocket 3.8 04:04:09 10° N 04:10:19 87° W 04:16:32 10° S
RESURS DK-1 4.0 04:10:27 23° SE 04:11:56 30° ESE 04:15:34 10° NE
Meteor 1-18 Rocket 4.4 04:11:55 55° WNW 04:11:58 55° WNW 04:17:40 10° N
UNKNOWN OBJECT B 4.3 04:09:03 10° N 04:11:08 28° NNW 04:11:08 28° NNW
NOSS 0 Rocket 3.8 04:06:53 10° NNW 04:13:08 78° WSW 04:19:21 10° SSE
CZ-4C R/B 4.2 04:17:36 21° SSW 04:17:36 21° SSW 04:20:16 10° S
Cosmos 2084 3.6 04:16:38 57° NNE 04:16:38 57° NNE 04:19:46 10° NE
ADEOS II 3.8 04:13:50 10° NNE 04:18:30 31° E 04:23:09 10° SSE
Cosmos 2344 3.6 04:16:41 41° SW 04:19:51 77° NW 04:28:55 10° NE
NOSS 3-2 (C) 3.9 04:14:24 10° NW 04:21:54 83° SW 04:29:59 10° SSE
Cosmos 1777 Rocket 3.9 04:21:55 59° WSW 04:22:46 71° WNW 04:28:03 10° NNE
CENTAUR R/B 4.1 04:16:23 10° NNW 04:23:38 45° NE 04:31:27 10° ESE
Cosmos 1743 2.7 04:19:57 10° N 04:23:34 78° NNE 04:23:34 78° NNE
Cosmos 2227 Rocket 2.3 04:21:35 32° S 04:24:18 72° ESE 04:29:58 10° NNE
Cosmos 1346 Rocket 4.4 04:21:12 11° SSE 04:24:39 34° E 04:28:18 10° NNE
MOS 1-B 4.4 04:19:50 10° N 04:25:29 57° WNW 04:26:47 46° WSW
ARIANE 5 R/B 3.7 04:21:48 10° N 04:25:08 26° NW 04:25:08 26° NW
CZ-2D R/B 2.9 04:25:02 10° N 04:29:18 32° WNW 04:29:18 32° WNW
ADEOS Rocket 3.8 04:22:25 10° NNE 04:29:39 62° E 04:36:08 10° S
Cosmos 2219 Rocket 2.3 04:24:45 10° NW 04:30:13 48° WSW 04:35:38 10° S
Lacrosse 5 2.1 04:29:39 38° SSW 04:31:24 62° SE 04:36:25 10° NE
Cosmos 2297 Rocket 2.6 04:29:49 19° S 04:33:54 63° ESE 04:39:29 10° NNE
BREEZE M DEB (TANK) 2.2 04:33:50 66° WNW 04:34:13 76° NNW 04:41:24 10° ENE
PSLV R/B 3.8 04:31:48 10° N 04:35:52 63° WNW 04:36:14 60° WSW
Okean O Rocket 1.5 04:33:02 10° N 04:37:26 68° WNW 04:38:33 47° SW
Cosmos 1461 4.3 04:38:43 25° NW 04:38:43 25° NW 04:42:20 10° NNE
Cosmos 1025 Rocket 3.0 04:36:44 26° S 04:39:09 85° E 04:43:30 10° N
Cosmos 2112 Rocket 3.9 04:33:57 10° NNW 04:39:18 80° WSW 04:44:32 10° SSE
BREEZE-M DEB (TANK) 3.3 04:39:06 35° SSW 04:40:31 52° SSE 04:43:07 10° ENE
Cosmos 2061 Rocket 4.4 04:34:21 10° N 04:40:38 66° E 04:46:56 10° SSE
OE (NEXTSAT) 4.3 04:42:41 67° WNW 04:43:08 88° NNE 04:46:46 10° ESE
Cosmos 1680 Rocket 3.4 04:39:02 10° NNW 04:44:16 62° WSW 04:49:26 10° S
CZ-4B DEB 4.1 04:39:35 10° NNE 04:45:06 86° WNW 04:50:15 12° SSW
CZ-2C R/B 3.8 04:43:01 25° SSW 04:45:26 50° W 04:49:56 10° NNW
Cosmos 1802 Rocket 4.4 04:39:57 10° N 04:46:05 64° E 04:52:10 10° SSE
NOSS 3-4 (A) 3.5 04:43:36 29° SW 04:47:09 80° NW 04:53:47 10° NE
NOSS 3-4 (C) 3.5 04:43:41 28° SW 04:47:15 81° NW 04:53:53 10° NE
Cosmos 2100 Rocket 4.1 04:41:03 10° N 04:47:18 81° E 04:53:35 10° S
CZ-4B R/B 3.0 04:43:41 10° N 04:48:01 72° WNW 04:50:34 25° SSW
Cosmos 1606 Rocket 3.4 04:43:46 10° N 04:48:11 83° W 04:52:31 10° S
Cosmos 292 Rocket 3.9 04:43:44 10° NNW 04:48:38 80° ENE 04:53:29 10° SSE
Meteor 1-15 Rocket 4.5 04:44:31 10° N 04:50:05 70° ENE 04:55:40 10° SSE
MOZ.5/SAFIR/RUBIN 5/SL-8 4.3 04:51:08 35° W 04:51:08 35° W 04:55:27 10° NNW
Tiangong 1 1.7 04:53:12 38° S 04:53:25 39° SSE 04:56:18 10° E
PAYLOAD B 4.2 04:48:20 10° N 04:53:47 66° WNW 04:58:16 16° SSW
IRS-1C Rocket 4.3 04:53:26 10° N 04:58:32 49° WNW 05:01:40 22° SW
Resurs 1-4 Rocket 3.5 04:55:02 10° NNW 04:58:42 19° WNW 04:59:05 19° WNW
Lacrosse 5 rocket 3.0 04:57:30 21° WNW 04:59:14 26° NNW 05:03:00 10° NE
Cosmos 1726 Rocket 3.4 04:55:14 10° NNW 04:59:39 75° W 05:04:00 10° S
Cosmos 2082 3.7 04:59:49 21° SW 05:03:34 62° WNW 05:09:09 10° NNE
Cosmos 2298 Rocket 4.5 04:58:36 10° S 05:03:49 64° ESE 05:09:05 10° NNE
Meteor 1-31 Rocket 4.2 05:00:51 10° NNE 05:04:32 40° E 05:08:14 10° S
Okean 1-7 Rocket 4.4 05:04:14 28° W 05:04:52 29° WNW 05:08:45 10° NNW
Okean 2 3.3 05:00:48 10° S 05:04:58 88° W 05:09:08 10° N
Cosmos 2333 Rocket 2.8 05:01:41 10° NW 05:06:40 32° WSW 05:11:36 10° SSW
ATLAS 2AS CENTAUR R/B 4.5 05:04:31 13° WNW 05:09:52 25° NNW 05:16:19 10° NNE
Cosmos 1892 Rocket 3.5 05:07:08 10° SSW 05:11:36 71° W 05:16:06 10° N
Thor Agena Rocket 3.7 05:06:30 10° S 05:11:38 53° W 05:16:50 10° NNW
Aureole 2 Rocket 2.8 05:10:03 10° NNW 05:13:39 65° ENE 05:16:52 10° SSE
Meteor 1-19 Rocket 4.5 05:10:46 11° SSW 05:16:02 46° WNW 05:21:26 10° N
Cosmos 220 Rocket 4.4 05:15:42 21° WSW 05:18:06 41° WNW 05:22:07 10° N
PSLV R/B 3.6 05:14:21 10° N 05:18:39 61° WNW 05:22:53 10° SSW
Cosmos 2150 Rocket 4.2 05:13:36 10° SSW 05:18:44 74° ESE 05:23:53 10° NNE
USA 129 1.4 05:19:43 10° SSE 05:21:42 82° E 05:23:32 10° N
Cosmos 1000 Rocket 4.5 05:16:46 10° SSW 05:23:05 74° W 05:29:26 10° N
Cosmos 2016 Rocket 4.0 05:18:05 10° N 05:24:28 80° W 05:30:44 10° S
Cosmos 2098 Rocket 2.8 05:21:00 10° N 05:24:41 88° W 05:29:19 10° S
CZ-4B R/B 3.8 05:24:07 10° N 05:28:58 36° WNW 05:33:54 10° SW
Cosmos 2173 Rocket 4.0 05:24:25 10° NNW 05:30:19 53° W 05:36:14 10° SSW
SL-08 R/B 4.5 05:25:17 10° N 05:31:32 84° W 05:37:51 10° S
Cosmos 1812 Rocket 4.4 05:28:14 10° N 05:32:37 57° E 05:37:00 10° SSE
Cosmos 2237 Rocket 3.2 05:29:34 10° NW 05:33:54 23° W 05:38:13 10° SSW
Cosmos 1515 4.4 05:30:12 10° S 05:33:58 59° E 05:37:45 10° NNE
Cosmos 1666 3.5 05:30:47 10° NNW 05:34:10 29° W 05:37:30 10° SSW
Cosmos 2228 3.1 05:30:33 10° NNW 05:34:53 57° W 05:39:10 10° S
Meteor 2-4 Rocket 4.1 05:29:51 10° SW 05:35:24 45° WNW 05:41:06 10° N
Meteor 1-23 Rocket 4.5 05:31:25 10° SSW 05:36:48 47° WNW 05:42:18 10° N
COS B Rocket 3.7 05:37:24 17° WNW 05:37:24 17° WNW 05:38:56 10° NW
SeaSat 1 3.6 05:32:37 10° SE 05:37:18 46° NE 05:42:00 10° NNW
Okean-O 2.9 05:34:28 10° N 05:38:46 48° WNW 05:43:02 10° SW
Cosmos 1459 Rocket 4.3 05:33:50 10° NNW 05:39:50 45° W 05:45:47 10° SSW
Cosmos 1174 4.1 05:37:06 10° NNW 05:40:02 50° NE 05:43:09 10° SE
Cosmos 2123 Rocket 4.0 05:36:34 10° S 05:42:44 89° ESE 05:48:57 10° N
ATLAS 5 CENTAUR R/B 3.3 05:39:45 10° WNW 05:44:44 26° WSW 05:49:57 10° SSW
Cosmos 2058 Rocket 3.8 05:43:52 10° NNW 05:47:40 30° W 05:51:27 10° SSW
RESURS DK-1 3.4 05:46:26 10° WSW 05:49:58 27° NW 05:53:34 10° N
Cosmos 1340 4.1 05:48:21 10° SSE 05:51:56 43° E 05:55:34 10° NNE
Cosmos 1898 Rocket 3.7 05:47:38 10° SW 05:52:50 54° WNW 05:58:03 10° NNE
EXPRESS MD2 3.8 05:49:30 10° WNW 05:52:52 62° SSW 05:59:37 10° SE
SL-16 R/B 2.7 05:47:51 10° NW 05:53:02 37° WSW 05:58:10 10° S
MOS 1 Rocket 3.5 05:50:11 10° N 05:54:48 56° WNW 05:59:42 10° SSW
COBE Rocket 4.0 05:51:54 10° N 05:56:37 54° WNW 06:01:11 10° SSW
ADEOS II 2.7 05:53:28 10° N 05:58:15 36° WNW 06:03:01 10° SW
Cosmos 1346 Rocket 4.3 05:58:20 10° WSW 06:01:12 19° WNW 06:04:06 10° NNW
COSMO-SKYMED 1 2.5 05:59:04 10° S 06:03:23 70° WSW 06:07:44 10° NNW
NOAA 6 4.1 05:59:56 10° N 06:05:06 67° WNW 06:10:14 10° SSW
